Home > Weather > Roanoke > Past weeks

Flag for USA Weather for the Past 2 Weeks in Roanoke, Virginia, USA

Now
54 °F

Rain. Mostly cloudy.


Feels Like: 53 °F
Forecast: 56 / 74 °F
Wind: 6 mph from Southeast

Location: Roanoke Regional Airport

Current Time: May 1, 2016 at 5:10:36 AM

Latest Report: May 1, 2016 at 3:54 AM


Visibility: 8 mi

Pressure: 30.10 "Hg

Humidity: 97%

Dew Point: 53 °F

Location of RoanokeLocation

Historic Weather in Roanoke — Graph

°F

Roanoke Temperature Yesterday

Maximum temperature yesterday: 59 °F (at 12:54 AM)
Minimum temperature yesterday: 54 °F (at 9:54 PM)
Average temperature yesterday: 56 °F

High & Low Weather Summary for the Past Weeks

 TemperatureHumidityPressure
High87 °F (Apr 18, 5:54 PM)100% (Apr 28, 5:54 AM)30.48 "Hg (Apr 28, 5:54 AM)
Low36 °F (Apr 16, 6:54 AM)13% (Apr 18, 5:54 PM)29.74 "Hg (Apr 26, 7:54 PM)
Average65 °F57%30.07 "Hg
* Reported Apr 16 3:54 AM — May 1 3:54 AM, Roanoke, Weather by CustomWeather, © 2016

Note: Actual official high and low records may vary slightly from our data, if they occured in-between our weather recording intervals... More about our weather records

Advertising

Roanoke Weather History for the Previous 24 Hours

Scroll right to see more
 ConditionsComfort  
Time TempWeatherWind HumidityBarometerVisibility
3:54 AM
Sun, May 1
54 °FRain. Mostly cloudy.6 mph97%30.10 "Hg8 mi
2:54 AM54 °FLight rain. Fog.7 mph97%30.12 "Hg6 mi
1:54 AM54 °FLight rain. Low clouds.5 mph97%30.14 "Hg8 mi
12:54 AM54 °FLight rain. Low clouds.5 mph97%30.15 "Hg10 mi
11:54 PM
Sat, Apr 30
54 °FRain. Fog.7 mph97%30.16 "Hg4 mi
10:54 PM54 °FLight rain. Low clouds.6 mph97%30.17 "Hg10 mi
9:54 PM54 °FLight rain. Low clouds.6 mph97%30.17 "Hg10 mi
8:54 PM55 °FMostly cloudy.3 mph93%30.18 "Hg10 mi
7:54 PM55 °FLow clouds.5 mph93%30.16 "Hg10 mi
6:54 PM55 °FLow clouds.7 mph93%30.16 "Hg8 mi
5:54 PM56 °FMostly cloudy.7 mph90%30.16 "Hg10 mi
4:54 PM56 °FLight rain. Mostly cloudy.9 mph93%30.14 "Hg10 mi
3:54 PM56 °FLight rain. Fog.8 mph93%30.15 "Hg5 mi
2:54 PM56 °FDrizzle. Low clouds.10 mph93%30.15 "Hg2 mi
1:54 PM56 °FDrizzle. Fog.9 mph93%30.16 "Hg2 mi
12:54 PM56 °FDrizzle. Fog.7 mph97%30.16 "Hg2 mi
11:54 AM56 °FDrizzle. Fog.10 mph93%30.16 "Hg3 mi
10:54 AM56 °FDrizzle. Fog.8 mph93%30.16 "Hg3 mi
9:54 AM56 °FFog.7 mph93%30.14 "Hg3 mi
8:54 AM55 °FFog.8 mph96%30.13 "Hg3 mi
7:54 AM55 °FLow clouds.8 mph93%30.13 "Hg10 mi
6:54 AM55 °FLow clouds.8 mph96%30.11 "Hg10 mi
5:54 AM55 °FMostly cloudy.7 mph96%30.09 "Hg10 mi
Weather by CustomWeather, © 2016

See weather overviewHow to use our weather pages